Location: Unspecified
(0.0000°N, 0.0000°E)
Time: 17:33:29
(UTC+00:00)

Vanguard 2 Rocket - Pass Details

Date: 17 December 2017
Orbit: 556 x 3326 km, 32.9° (Epoch: 18 January)

Event Time Altitude Azimuth Distance (km) Brightness Sun altitude
Rises 16:32:23 0° 273° (W) 3,421 10.9 19.2°
Reaches altitude 10° 16:35:03 10° 288° (WNW) 2,763 10.2 18.6°
Maximum altitude 16:40:23 24° 340° (NNW) 2,479 9.2 17.4°
Drops below altitude 10° 16:48:19 10° 29° (NNE) 4,258 9.9 15.6°
Sets 16:53:48 0° 41° (NE) 5,818 10.5 14.3°
